"startDT [UTC]","vpos","CH4 [ppm]","stdev(CH4) [ppm]","CO2 [ppm]","stdev(CO2) [ppm]","H2O_reported [%]","stdev(H2O_reported)","CavityPressure [torr]","CavityTemp [C]","OutletValve","CH4_dry [ppm]","CO2_dry [ppm]","DasTemp [C]","EtalonTemp [C]","WarmBoxTemp [C]","MPVPosition","T_ECpre [C]","T_EC1 [C]","T_EC2 [C]","p_inlet [hPa]","p_in [hPa]","p_out [hPa]","T_inlet [C]","RH_inlet [%]","dwpt_inlet [C]","T_vent [C]","RH_vent [%]","dwpt_vent [C]","flow_vent [l min-1]","flow_inlet [l min-1]","dwpt_sample [C]","T_room [C]"
2015-06-11 00:00:00,0.0,1.89098,0.00033,398.415,0.027,0.7351,0.0033,140.000,45.000,34436.94979,1.90500,402.018,36.587,45.067,45.000,0.00,0.10,-272.71,-272.78,-10,984,-10,27.7,14.7,-1.6,27.4,15.1,-1.4,5.73,1.92,1.6,31.2
2015-06-11 00:01:00,0.0,1.89077,0.00044,398.370,0.027,0.7374,0.0025,140.001,45.000,34437.96302,1.90479,401.987,36.566,45.067,45.000,0.00,0.10,-272.71,-272.78,-10,984,-10,27.7,14.8,-1.5,27.3,15.2,-1.4,5.73,1.88,1.7,31.3
2015-06-11 00:02:00,0.0,1.89076,0.00036,398.402,0.041,0.7372,0.0026,140.000,45.000,34436.29212,1.90481,402.016,36.570,45.066,45.000,0.00,0.10,-272.72,-272.78,-10,983,-10,27.7,14.8,-1.5,27.3,15.2,-1.4,5.73,1.83,1.7,31.2
2015-06-11 00:03:00,0.0,1.89106,0.00041,398.379,0.036,0.7393,0.0024,139.998,45.000,34435.34025,1.90511,402.005,36.568,45.066,45.000,0.00,0.10,-272.71,-272.78,-10,982,-10,27.7,14.8,-1.5,27.4,15.2,-1.3,5.73,1.83,1.6,31.2
2015-06-11 00:04:00,0.0,1.89104,0.00037,398.399,0.024,0.7391,0.0028,140.001,45.000,34435.65527,1.90514,402.022,36.560,45.066,45.000,0.00,0.10,-272.71,-272.77,-10,982,-10,27.6,14.8,-1.5,27.3,15.2,-1.4,5.73,1.88,1.7,31.2
2015-06-11 00:05:00,0.0,1.89106,0.00025,398.406,0.032,0.7405,0.0017,140.000,45.000,34433.07030,1.90515,402.037,36.562,45.066,45.000,0.00,0.10,-272.71,-272.77,-10,982,-10,27.7,14.9,-1.5,27.4,15.3,-1.3,5.73,1.91,1.6,31.2
2015-06-11 00:06:00,0.0,1.89111,0.00040,398.416,0.033,0.7411,0.0020,140.002,45.000,34434.19241,1.90520,402.052,36.565,45.066,45.000,0.00,0.10,-272.71,-272.77,-10,983,-10,27.6,14.9,-1.4,27.4,15.3,-1.3,5.73,1.93,1.7,31.3
2015-06-11 00:07:00,0.0,1.89153,0.00040,398.421,0.026,0.7382,0.0022,140.007,45.000,34433.93242,1.90558,402.043,36.564,45.066,45.000,0.00,0.10,-272.71,-272.77,-10,984,-10,27.7,14.8,-1.5,27.3,15.2,-1.4,5.73,1.91,1.6,31.3
2015-06-11 00:08:00,0.0,1.89138,0.00030,398.413,0.027,0.7364,0.0020,139.999,45.000,34431.18282,1.90542,402.022,36.563,45.066,45.000,0.00,0.10,-272.71,-272.77,-10,984,-10,27.7,14.8,-1.5,27.4,15.2,-1.4,5.73,1.86,1.7,31.3
2015-06-11 00:09:00,0.0,1.89156,0.00032,398.410,0.028,0.7383,0.0015,140.001,45.000,34433.29481,1.90563,402.030,36.563,45.066,45.000,0.00,0.10,-272.71,-272.78,-9,983,-10,27.7,14.8,-1.5,27.3,15.2,-1.4,5.73,1.83,1.6,31.2
2015-06-11 00:10:00,0.0,1.89167,0.00034,398.416,0.030,0.7371,0.0039,140.003,45.000,34434.05588,1.90570,402.033,36.563,45.066,45.000,0.00,0.10,-272.71,-272.78,-10,982,-10,27.6,14.8,-1.5,27.3,15.2,-1.4,5.73,1.84,1.6,31.3
2015-06-11 00:11:00,0.0,1.89154,0.00042,398.440,0.029,0.7342,0.0026,139.998,45.000,34433.38301,1.90552,402.039,36.564,45.066,45.000,0.00,0.10,-272.71,-272.77,-10,982,-10,27.7,14.7,-1.6,27.3,15.1,-1.5,5.73,1.89,1.6,31.3
2015-06-11 00:12:00,0.0,1.89172,0.00040,398.450,0.030,0.7312,0.0016,140.003,45.000,34434.68319,1.90566,402.035,36.562,45.066,45.000,0.00,0.10,-272.72,-272.78,-10,983,-10,27.7,14.7,-1.6,27.3,15.1,-1.5,5.73,1.92,1.6,31.3
2015-06-11 00:13:00,0.0,1.89145,0.00028,398.454,0.026,0.7308,0.0021,140.002,45.000,34435.12491,1.90539,402.036,36.560,45.066,45.000,0.00,0.10,-272.71,-272.78,-10,984,-10,27.6,14.7,-1.6,27.4,15.1,-1.5,5.73,1.93,1.6,31.3
2015-06-11 00:14:00,0.0,1.89173,0.00040,398.428,0.036,0.7313,0.0015,140.006,45.000,34437.21123,1.90563,402.015,36.559,45.066,45.000,0.00,0.10,-272.71,-272.77,-10,984,-10,27.7,14.7,-1.6,27.3,15.1,-1.5,5.73,1.90,2.1,31.2
2015-06-11 00:15:00,0.0,1.89181,0.00030,398.429,0.034,0.7319,0.0019,140.000,45.000,34435.93986,1.90574,402.018,36.551,45.066,45.000,0.00,0.10,-272.71,-272.78,-10,983,-10,27.6,14.7,-1.6,27.3,15.1,-1.5,5.73,1.86,2.4,31.2
2015-06-11 00:16:00,0.0,1.89171,0.00039,398.435,0.045,0.7321,0.0026,139.996,45.000,34435.14476,1.90565,402.024,36.548,45.066,45.000,0.00,0.10,-272.71,-272.78,-10,982,-10,27.7,14.7,-1.6,27.3,15.1,-1.5,5.73,1.84,2.3,31.2
2015-06-11 00:17:00,0.0,1.89215,0.00042,398.439,0.023,0.7342,0.0028,140.002,45.000,34433.80752,1.90612,402.038,36.520,45.066,45.000,0.00,0.10,-272.71,-272.77,-10,983,-10,27.6,14.8,-1.6,27.3,15.1,-1.5,5.73,1.84,2.3,31.3
2015-06-11 00:18:00,0.0,1.89203,0.00059,398.443,0.038,0.7356,0.0021,139.998,45.000,34432.05858,1.90608,402.050,36.506,45.067,45.000,0.00,0.10,-272.71,-272.77,-10,983,-10,27.7,14.8,-1.5,27.3,15.1,-1.4,5.73,1.88,2.2,31.3
2015-06-11 00:19:00,0.0,1.89169,0.00048,398.428,0.020,0.7396,0.0020,139.997,45.000,34430.56084,1.90577,402.055,36.500,45.067,45.000,0.00,0.10,-272.72,-272.77,-10,984,-10,27.6,14.9,-1.5,27.3,15.3,-1.3,5.73,1.91,2.1,31.3
2015-06-11 00:20:00,0.0,1.89206,0.00059,398.425,0.039,0.7393,0.0021,139.998,45.000,34429.61017,1.90613,402.053,36.500,45.067,45.000,0.00,0.10,-272.71,-272.77,-10,984,-10,27.7,14.8,-1.5,27.3,15.3,-1.3,5.73,1.93,2.1,31.3
2015-06-11 00:21:00,0.0,1.89206,0.00038,398.440,0.034,0.7339,0.0022,139.998,45.000,34430.61376,1.90607,402.038,36.499,45.067,45.000,0.00,0.10,-272.71,-272.77,-9,983,-10,27.6,14.8,-1.6,27.3,15.2,-1.4,5.73,1.90,2.1,31.3
2015-06-11 00:22:00,0.0,1.89203,0.00033,398.446,0.028,0.7340,0.0033,140.000,45.000,34430.30099,1.90602,402.044,36.497,45.067,45.000,0.00,0.10,-272.71,-272.78,-10,982,-10,27.6,14.8,-1.6,27.3,15.1,-1.5,5.73,1.87,2.0,31.2
2015-06-11 00:23:00,0.0,1.89231,0.00041,398.430,0.031,0.7413,0.0014,139.999,45.000,34428.82199,1.90640,402.065,36.491,45.067,45.000,0.00,0.10,-272.71,-272.78,-10,983,-10,27.6,14.9,-1.4,27.3,15.3,-1.3,5.73,1.85,2.0,31.2
2015-06-11 00:24:00,0.0,1.89246,0.00032,398.416,0.030,0.7447,0.0025,140.000,45.000,34430.75505,1.90663,402.070,36.497,45.067,45.000,0.00,0.10,-272.70,-272.78,-10,984,-10,27.6,15.0,-1.4,27.3,15.4,-1.3,5.73,1.85,2.0,31.2
2015-06-11 00:25:00,0.0,1.89264,0.00040,398.417,0.035,0.7445,0.0023,139.997,45.000,34429.79325,1.90686,402.066,36.500,45.066,45.000,0.00,0.10,-272.71,-272.78,-10,984,-10,27.6,15.0,-1.4,27.3,15.4,-1.2,5.73,1.87,1.9,31.2
2015-06-11 00:26:00,0.0,1.89220,0.00025,398.408,0.031,0.7463,0.0027,139.995,45.000,34430.15186,1.90643,402.070,36.496,45.066,45.000,0.00,0.10,-272.72,-272.78,-10,983,-10,27.7,15.0,-1.3,27.3,15.4,-1.2,5.73,1.90,1.9,31.2
2015-06-11 00:27:00,0.0,1.89254,0.00029,398.368,0.036,0.7478,0.0022,140.000,45.000,34432.20289,1.90680,402.038,36.483,45.066,45.000,0.00,0.10,-272.71,-272.77,-10,983,-10,27.6,15.0,-1.3,27.3,15.5,-1.2,5.73,1.93,1.9,31.2
2015-06-11 00:28:00,0.0,1.89238,0.00043,398.365,0.043,0.7499,0.0027,140.004,45.000,34431.12544,1.90664,402.040,36.470,45.066,45.000,0.00,0.10,-272.72,-272.77,-10,983,-10,27.6,15.1,-1.3,27.3,15.5,-1.1,5.73,1.92,1.9,31.1
2015-06-11 00:29:00,0.0,1.89255,0.00039,398.351,0.030,0.7539,0.0020,140.004,45.000,34433.88638,1.90696,402.051,36.474,45.066,45.000,0.00,0.10,-272.72,-272.78,-10,984,-10,27.6,15.2,-1.2,27.3,15.6,-1.1,5.73,1.89,1.9,31.2
2015-06-11 00:30:00,0.0,1.89218,0.00028,398.319,0.028,0.7567,0.0034,140.004,45.000,34434.06670,1.90659,402.029,36.477,45.066,45.000,0.00,0.10,-272.71,-272.78,-10,984,-10,27.6,15.3,-1.1,27.3,15.7,-1.0,5.73,1.84,1.8,31.2
2015-06-11 00:31:00,0.0,1.89196,0.00032,398.317,0.030,0.7648,0.0037,140.003,45.000,34435.36518,1.90655,402.071,36.482,45.066,45.000,0.00,0.10,-272.70,-272.77,-9,983,-10,27.6,15.4,-1.0,27.3,15.8,-0.9,5.73,1.84,1.8,31.2
2015-06-11 00:32:00,0.0,1.89212,0.00035,398.356,0.036,0.7518,0.0019,140.001,45.000,34435.92586,1.90645,402.046,36.498,45.066,45.000,0.00,0.10,-272.71,-272.78,-9,983,-10,27.6,15.1,-1.2,27.3,15.6,-1.1,5.73,1.86,1.8,31.2
2015-06-11 00:33:00,0.0,1.89238,0.00040,398.367,0.035,0.7487,0.0024,140.001,45.000,34434.68177,1.90663,402.038,36.497,45.066,45.000,0.00,0.10,-272.71,-272.77,-10,983,-10,27.6,15.1,-1.3,27.3,15.5,-1.1,5.73,1.90,1.8,31.2
2015-06-11 00:34:00,0.0,1.89230,0.00038,398.356,0.039,0.7529,0.0026,140.001,45.000,34434.39315,1.90666,402.048,36.488,45.066,45.000,0.00,0.10,-272.71,-272.77,-10,984,-10,27.6,15.2,-1.2,27.3,15.6,-1.1,5.73,1.92,1.8,31.1
2015-06-11 00:35:00,0.0,1.89228,0.00044,398.327,0.046,0.7581,0.0019,139.997,45.000,34434.87434,1.90674,402.048,36.495,45.066,45.000,0.00,0.10,-272.71,-272.78,-10,984,-10,27.6,15.3,-1.1,27.3,15.7,-1.0,5.73,1.92,1.8,31.1
2015-06-11 00:36:00,0.0,1.89233,0.00042,398.326,0.027,0.7580,0.0017,139.998,45.000,34434.84524,1.90678,402.042,36.476,45.066,45.000,0.00,0.10,-272.71,-272.78,-10,983,-10,27.6,15.3,-1.1,27.3,15.7,-1.0,5.73,1.89,1.8,31.2
2015-06-11 00:37:00,0.0,1.89299,0.00036,398.347,0.037,0.7526,0.0034,139.999,45.000,34433.72137,1.90735,402.039,36.449,45.066,45.000,0.00,0.10,-272.71,-272.78,-10,982,-10,27.6,15.1,-1.2,27.3,15.6,-1.0,5.73,1.87,1.8,31.1
2015-06-11 00:38:00,0.0,1.89325,0.00035,398.358,0.032,0.7508,0.0040,140.000,45.000,34434.34648,1.90755,402.042,36.445,45.066,45.000,0.00,0.10,-272.71,-272.77,-10,983,-10,27.6,15.2,-1.2,27.3,15.6,-1.1,5.73,1.85,1.7,31.1
2015-06-11 00:39:00,0.0,1.89324,0.00031,398.336,0.030,0.7563,0.0026,140.003,45.000,34434.39401,1.90767,402.048,36.460,45.067,45.000,0.00,0.10,-272.71,-272.78,-10,984,-10,27.6,15.3,-1.2,27.3,15.7,-1.0,5.73,1.84,1.7,31.1
2015-06-11 00:40:00,0.0,1.89339,0.00037,398.365,0.023,0.7489,0.0029,139.998,45.000,34434.25607,1.90765,402.039,36.451,45.067,45.000,0.00,0.10,-272.71,-272.78,-10,984,-10,27.6,15.1,-1.3,27.3,15.5,-1.1,5.73,1.87,1.7,31.2
2015-06-11 00:41:00,0.0,1.89375,0.00042,398.388,0.030,0.7491,0.0023,139.994,45.000,34431.88022,1.90802,402.063,36.447,45.067,45.000,0.00,0.10,-272.71,-272.77,-10,983,-10,27.6,15.1,-1.3,27.3,15.5,-1.1,5.73,1.91,1.7,31.2
2015-06-11 00:42:00,0.0,1.89400,0.00061,398.359,0.032,0.7468,0.0031,139.999,45.000,34432.43769,1.90827,402.022,36.439,45.067,45.000,0.00,0.10,-272.72,-272.77,-10,983,-10,27.6,15.0,-1.4,27.3,15.5,-1.2,5.73,1.93,1.7,31.2
2015-06-11 00:43:00,0.0,1.89399,0.00042,398.388,0.028,0.7478,0.0021,140.002,45.000,34432.00454,1.90824,402.055,36.441,45.067,45.000,0.00,0.10,-272.72,-272.78,-10,983,-10,27.6,15.0,-1.3,27.3,15.5,-1.2,5.73,1.92,1.7,31.2
2015-06-11 00:44:00,0.0,1.89375,0.00036,398.374,0.041,0.7425,0.0021,139.998,45.000,34434.75177,1.90792,402.018,36.438,45.066,45.000,0.00,0.10,-272.71,-272.77,-10,985,-10,27.6,14.9,-1.4,27.3,15.4,-1.3,5.73,1.89,1.7,31.2
2015-06-11 00:45:00,0.0,1.89394,0.00053,398.371,0.035,0.7422,0.0011,139.995,45.000,34432.60033,1.90813,402.009,36.440,45.066,45.000,0.00,0.10,-272.71,-272.77,-10,983,-10,27.6,14.9,-1.5,27.3,15.3,-1.3,5.73,1.85,1.7,31.2
2015-06-11 00:46:00,0.0,1.89386,0.00048,398.355,0.015,0.7459,0.0032,140.005,45.000,34435.30446,1.90801,402.013,36.438,45.066,45.000,0.00,0.10,-272.71,-272.78,-9,983,-10,27.6,15.0,-1.4,27.3,15.4,-1.2,5.73,1.84,1.7,31.2
2015-06-11 00:47:00,0.0,1.89354,0.00042,398.371,0.030,0.7444,0.0039,139.997,45.000,34435.33067,1.90780,402.024,36.438,45.067,45.000,0.00,0.10,-272.71,-272.78,-10,983,-10,27.6,15.0,-1.4,27.3,15.5,-1.2,5.73,1.86,1.7,31.2
2015-06-11 00:48:00,0.0,1.89404,0.00021,398.372,0.019,0.7380,0.0019,139.997,45.000,34432.84096,1.90808,401.991,36.435,45.066,45.000,0.00,0.10,-272.70,-272.77,-10,984,-10,27.6,14.8,-1.5,27.3,15.3,-1.3,5.73,1.88,1.7,31.2
2015-06-11 00:49:00,0.0,1.89389,0.00027,398.376,0.029,0.7395,0.0030,139.998,45.000,34434.60777,1.90801,402.001,36.410,45.066,45.000,0.00,0.10,-272.71,-272.78,-10,984,-10,27.6,14.9,-1.5,27.3,15.3,-1.4,5.73,1.91,1.7,31.1
2015-06-11 00:50:00,0.0,1.89411,0.00038,398.320,0.027,0.7460,0.0027,140.003,45.000,34438.22436,1.90831,401.979,36.378,45.066,45.000,0.00,0.10,-272.71,-272.78,-10,983,-10,27.6,15.0,-1.4,27.3,15.4,-1.2,5.73,1.93,1.7,31.1
2015-06-11 00:51:00,0.0,1.89389,0.00036,398.341,0.023,0.7434,0.0025,140.002,45.000,34438.25233,1.90810,401.987,36.388,45.067,45.000,0.00,0.10,-272.71,-272.77,-10,983,-10,27.6,15.0,-1.4,27.3,15.4,-1.2,5.73,1.91,1.7,31.1
2015-06-11 00:52:00,0.0,1.89431,0.00046,398.350,0.032,0.7400,0.0023,140.000,45.000,34436.80218,1.90841,401.979,36.378,45.067,45.000,0.00,0.10,-272.71,-272.78,-10,984,-10,27.6,14.9,-1.5,27.3,15.3,-1.3,5.73,1.89,1.6,31.1
2015-06-11 00:53:00,0.0,1.89417,0.00035,398.333,0.022,0.7437,0.0027,140.001,45.000,34437.60418,1.90835,401.979,36.375,45.067,45.000,0.00,0.10,-272.72,-272.78,-10,984,-10,27.6,15.0,-1.4,27.3,15.4,-1.3,5.73,1.85,1.6,31.1
2015-06-11 00:54:00,0.0,1.89412,0.00035,398.351,0.033,0.7402,0.0036,140.003,45.000,34438.83340,1.90821,401.981,36.375,45.067,45.000,0.00,0.10,-272.71,-272.78,-10,983,-10,27.6,14.9,-1.5,27.3,15.4,-1.3,5.73,1.84,1.6,31.1
2015-06-11 00:55:00,0.0,1.89451,0.00045,398.381,0.031,0.7332,0.0016,139.996,45.000,34436.98132,1.90852,401.976,36.375,45.067,45.000,0.00,0.10,-272.71,-272.78,-10,983,-10,27.6,14.8,-1.6,27.3,15.2,-1.5,5.73,1.85,1.6,31.1
2015-06-11 00:56:00,0.0,1.89431,0.00026,398.368,0.041,0.7374,0.0038,139.999,45.000,34434.54129,1.90840,401.981,36.375,45.067,45.000,0.00,0.10,-272.72,-272.78,-10,984,-10,27.6,14.9,-1.5,27.3,15.2,-1.4,5.73,1.89,1.6,31.1
2015-06-11 00:57:00,0.0,1.89446,0.00031,398.351,0.022,0.7418,0.0023,139.999,45.000,34433.13705,1.90858,401.990,36.375,45.066,45.000,0.00,0.10,-272.71,-272.77,-10,985,-10,27.5,15.0,-1.4,27.3,15.4,-1.3,5.73,1.91,1.6,31.2
2015-06-11 00:58:00,0.0,1.89428,0.00051,398.388,0.032,0.7439,0.0025,140.001,45.000,34431.93254,1.90852,402.035,36.375,45.066,45.000,0.00,0.10,-272.71,-272.77,-9,983,-10,27.5,15.0,-1.4,27.3,15.4,-1.3,5.73,1.93,1.6,31.1
2015-06-11 00:59:00,0.0,1.89417,0.00047,398.357,0.027,0.7466,0.0023,140.002,45.000,34433.34951,1.90836,402.020,36.374,45.066,45.000,0.00,0.10,-272.72,-272.78,-10,983,-10,27.5,15.1,-1.4,27.3,15.5,-1.2,5.73,1.92,1.6,31.1
2015-06-11 01:00:00,0.0,1.89445,0.00053,398.374,0.036,0.7412,0.0029,140.002,45.000,34433.84524,1.90860,402.010,36.371,45.066,45.000,0.00,0.10,-272.71,-272.78,-10,984,-10,27.5,15.0,-1.5,27.3,15.4,-1.3,5.73,1.89,1.6,31.2
2015-06-11 01:01:00,0.0,1.89410,0.00036,398.340,0.028,0.7469,0.0031,139.999,45.000,34434.13800,1.90839,402.001,36.374,45.066,45.000,0.00,0.10,-272.71,-272.77,-10,984,-10,27.5,15.1,-1.4,27.3,15.4,-1.2,5.73,1.85,1.6,31.1
2015-06-11 01:02:00,0.0,1.89407,0.00046,398.347,0.036,0.7465,0.0026,139.998,45.000,34432.61379,1.90830,402.010,36.374,45.066,45.000,0.00,0.10,-272.71,-272.78,-10,983,-10,27.5,15.1,-1.4,27.3,15.5,-1.2,5.73,1.84,1.6,31.1
2015-06-11 01:03:00,0.0,1.89406,0.00027,398.350,0.031,0.7425,0.0025,140.001,45.000,34434.33175,1.90826,401.989,36.370,45.067,45.000,0.00,0.10,-272.71,-272.78,-10,983,-10,27.5,15.0,-1.5,27.3,15.4,-1.3,5.73,1.85,1.6,31.2
2015-06-11 01:04:00,0.0,1.89413,0.00041,398.375,0.035,0.7447,0.0023,139.998,45.000,34432.72131,1.90829,402.027,36.374,45.066,45.000,0.00,0.10,-272.71,-272.78,-10,984,-10,27.5,15.0,-1.4,27.3,15.5,-1.2,5.73,1.87,1.6,31.1
2015-06-11 01:05:00,0.0,1.89384,0.00043,398.335,0.034,0.7428,0.0031,140.005,45.000,34435.93396,1.90801,401.979,36.375,45.066,45.000,0.00,0.10,-272.71,-272.78,-10,984,-10,27.5,15.0,-1.5,27.3,15.4,-1.3,5.73,1.91,1.6,31.1
2015-06-11 01:06:00,0.0,1.89443,0.00034,398.387,0.039,0.7374,0.0014,139.996,45.000,34433.79354,1.90852,402.002,36.372,45.066,45.000,0.00,0.10,-272.72,-272.78,-10,983,-10,27.5,14.9,-1.5,27.3,15.3,-1.4,5.73,1.92,1.6,31.1
2015-06-11 01:07:00,0.0,1.89425,0.00050,398.378,0.022,0.7381,0.0029,140.000,45.000,34434.10554,1.90827,401.997,36.375,45.066,45.000,0.00,0.10,-272.72,-272.78,-10,983,-10,27.5,14.9,-1.5,27.3,15.3,-1.4,5.73,1.92,1.6,31.1
2015-06-11 01:08:00,0.0,1.89423,0.00053,398.352,0.043,0.7408,0.0022,140.000,45.000,34432.63693,1.90841,401.986,36.370,45.066,45.000,0.00,0.10,-272.71,-272.78,-10,984,-10,27.5,15.0,-1.5,27.3,15.4,-1.3,5.73,1.90,1.6,31.1
2015-06-11 01:09:00,0.0,1.89427,0.00046,398.352,0.031,0.7455,0.0026,139.999,45.000,34431.77228,1.90851,402.005,36.333,45.066,45.000,0.00,0.10,-272.72,-272.78,-10,984,-10,27.5,15.1,-1.4,27.2,15.5,-1.2,5.73,1.86,1.6,31.1
2015-06-11 01:10:00,0.0,1.89418,0.00051,398.374,0.034,0.7492,0.0026,140.005,45.000,34430.97189,1.90847,402.048,36.329,45.067,45.000,0.00,0.10,-272.72,-272.78,-10,983,-10,27.5,15.1,-1.3,27.2,15.6,-1.1,5.73,1.85,1.6,31.1
2015-06-11 01:11:00,0.0,1.89396,0.00057,398.340,0.034,0.7485,0.0023,139.995,45.000,34430.47973,1.90827,402.013,36.345,45.067,45.000,0.00,0.10,-272.70,-272.77,-10,983,-10,27.5,15.1,-1.3,27.2,15.6,-1.2,5.73,1.85,1.6,31.1
2015-06-11 01:12:00,0.0,1.89415,0.00070,398.343,0.024,0.7497,0.0028,139.999,45.000,34431.28971,1.90840,402.018,36.354,45.067,45.000,0.00,0.10,-272.71,-272.77,-10,984,-10,27.5,15.2,-1.3,27.2,15.6,-1.2,5.73,1.87,1.6,31.2
2015-06-11 01:13:00,0.0,1.89419,0.00047,398.340,0.038,0.7525,0.0024,140.002,45.000,34432.63779,1.90856,402.033,36.355,45.067,45.000,0.00,0.10,-272.72,-272.78,-10,984,-10,27.5,15.2,-1.2,27.2,15.6,-1.1,5.73,1.89,1.6,31.1
2015-06-11 01:14:00,0.0,1.89467,0.00022,398.316,0.025,0.7572,0.0024,140.002,45.000,34429.59987,1.90911,402.029,36.366,45.066,45.000,0.00,0.10,-272.71,-272.77,-10,983,-10,27.5,15.4,-1.1,27.2,15.7,-1.0,5.73,1.92,1.5,31.1
2015-06-11 01:15:00,0.0,1.89466,0.00040,398.311,0.026,0.7581,0.0017,140.004,45.000,34429.64539,1.90917,402.031,36.366,45.066,45.000,0.00,0.10,-272.71,-272.77,-10,983,-10,27.5,15.4,-1.1,27.2,15.8,-1.0,5.73,1.93,1.6,31.1
2015-06-11 01:16:00,0.0,1.89413,0.00048,398.250,0.032,0.7648,0.0040,139.994,45.000,34428.56826,1.90871,402.002,36.352,45.066,45.000,0.00,0.10,-272.71,-272.79,-10,984,-10,27.5,15.5,-1.0,27.2,15.9,-0.9,5.73,1.90,1.5,31.1
2015-06-11 01:17:00,0.0,1.89432,0.00043,398.323,0.035,0.7595,0.0040,139.999,45.000,34428.84747,1.90884,402.048,36.355,45.066,45.000,0.00,0.10,-272.71,-272.79,-10,983,-10,27.5,15.4,-1.1,27.2,15.9,-0.9,5.73,1.88,1.5,31.0
2015-06-11 01:18:00,0.0,1.89436,0.00048,398.316,0.021,0.7561,0.0041,140.004,45.000,34430.56134,1.90876,402.028,36.349,45.066,45.000,0.00,0.10,-272.71,-272.78,-10,983,-10,27.5,15.3,-1.2,27.2,15.8,-1.0,5.73,1.85,1.6,31.1
2015-06-11 01:19:00,0.0,1.89455,0.00060,398.352,0.027,0.7474,0.0017,140.003,45.000,34431.58358,1.90882,402.016,36.331,45.066,45.000,0.00,0.10,-272.71,-272.77,-10,984,-10,27.5,15.1,-1.3,27.2,15.6,-1.2,5.73,1.85,1.5,31.1
2015-06-11 01:20:00,0.0,1.89482,0.00040,398.378,0.026,0.7452,0.0019,139.999,45.000,34426.70803,1.90900,402.032,36.331,45.067,45.000,0.00,0.10,-272.72,-272.78,-10,984,-10,27.5,15.1,-1.4,27.2,15.5,-1.2,5.73,1.85,1.5,31.1
2015-06-11 01:21:00,0.0,1.89501,0.00041,398.343,0.028,0.7492,0.0023,140.003,45.000,34427.06701,1.90930,402.018,36.331,45.067,45.000,0.00,0.10,-272.71,-272.77,-10,983,-10,27.5,15.2,-1.3,27.2,15.6,-1.2,5.73,1.89,1.5,31.1
2015-06-11 01:22:00,0.0,1.89486,0.00061,398.278,0.041,0.7617,0.0030,140.000,45.000,34426.05307,1.90948,402.015,36.337,45.067,45.000,0.00,0.10,-272.72,-272.77,-10,983,-10,27.5,15.4,-1.1,27.2,15.8,-1.0,5.73,1.91,1.6,31.1
2015-06-11 01:23:00,0.0,1.89516,0.00038,398.306,0.031,0.7602,0.0030,139.998,45.000,34424.28044,1.90959,402.035,36.332,45.066,45.000,0.00,0.10,-272.72,-272.78,-10,984,-10,27.5,15.4,-1.1,27.2,15.9,-0.9,5.73,1.92,1.5,31.0
2015-06-11 01:24:00,0.0,1.89516,0.00043,398.321,0.034,0.7604,0.0023,139.997,45.000,34423.26133,1.90970,402.053,36.326,45.066,45.000,0.00,0.10,-272.71,-272.78,-10,984,-10,27.5,15.4,-1.1,27.2,15.8,-1.0,5.73,1.91,1.5,31.1
2015-06-11 01:25:00,0.0,1.89531,0.00021,398.317,0.042,0.7572,0.0031,139.998,45.000,34424.99656,1.90978,402.033,36.335,45.066,45.000,0.00,0.10,-272.71,-272.78,-10,983,-10,27.5,15.4,-1.1,27.2,15.8,-1.0,5.73,1.89,1.5,31.1
2015-06-11 01:26:00,0.0,1.89522,0.00033,398.308,0.025,0.7618,0.0019,140.005,45.000,34429.22703,1.90977,402.044,36.352,45.067,45.000,0.00,0.10,-272.71,-272.78,-10,983,-10,27.5,15.5,-1.1,27.2,15.9,-0.9,5.73,1.87,1.5,31.1
2015-06-11 01:27:00,0.0,1.89519,0.00032,398.312,0.029,0.7599,0.0017,140.004,45.000,34429.56550,1.90969,402.040,36.345,45.066,45.000,0.00,0.10,-272.71,-272.78,-10,984,-10,27.5,15.4,-1.1,27.2,15.9,-0.9,5.73,1.84,1.5,31.1
2015-06-11 01:28:00,0.0,1.89542,0.00033,398.300,0.037,0.7600,0.0053,139.997,45.000,34426.00799,1.90992,402.030,36.356,45.066,45.000,0.00,0.10,-272.70,-272.77,-10,984,-10,27.5,15.4,-1.1,27.2,15.9,-0.9,5.73,1.85,1.5,31.1
2015-06-11 01:29:00,0.0,1.89586,0.00034,398.367,0.026,0.7519,0.0025,140.002,45.000,34426.53917,1.91026,402.055,36.367,45.066,45.000,0.00,0.10,-272.71,-272.78,-10,983,-10,27.5,15.2,-1.3,27.2,15.7,-1.1,5.73,1.88,1.5,31.1
2015-06-11 01:30:00,0.0,1.89574,0.00042,398.374,0.046,0.7487,0.0019,139.998,45.000,34426.77694,1.90999,402.047,36.345,45.066,45.000,0.00,0.10,-272.72,-272.79,-10,984,-10,27.5,15.2,-1.3,27.2,15.6,-1.1,5.73,1.91,1.5,31.1
2015-06-11 01:31:00,0.0,1.89634,0.00032,398.392,0.034,0.7473,0.0020,140.000,45.000,34426.04362,1.91062,402.054,36.365,45.066,45.000,0.00,0.10,-272.71,-272.78,-10,984,-10,27.5,15.1,-1.3,27.2,15.6,-1.2,5.73,1.92,1.5,31.1
2015-06-11 01:32:00,0.0,1.89612,0.00037,398.354,0.043,0.7544,0.0030,139.998,45.000,34424.71913,1.91056,402.055,36.364,45.066,45.000,0.00,0.10,-272.71,-272.78,-10,984,-10,27.5,15.3,-1.2,27.2,15.7,-1.1,5.73,1.91,1.5,31.0
2015-06-11 01:33:00,0.0,1.89592,0.00050,398.295,0.050,0.7672,0.0047,140.001,45.000,34425.96432,1.91053,402.060,36.366,45.066,45.000,0.00,0.10,-272.71,-272.78,-10,983,-10,27.5,15.6,-0.9,27.2,15.9,-0.9,5.73,1.91,1.5,31.1
2015-06-11 01:34:00,0.0,1.89638,0.00027,398.305,0.021,0.7641,0.0056,140.001,45.000,34423.56224,1.91096,402.057,36.365,45.066,45.000,0.00,0.10,-272.71,-272.77,-10,984,-10,27.5,15.5,-1.0,27.2,16.0,-0.8,5.73,1.87,1.5,31.0
2015-06-11 01:35:00,0.0,1.89675,0.00036,398.385,0.033,0.7500,0.0019,139.998,45.000,34424.83489,1.91115,402.062,36.364,45.066,45.000,0.00,0.10,-272.71,-272.77,-10,984,-10,27.5,15.2,-1.3,27.2,15.7,-1.1,5.73,1.85,1.5,31.0
2015-06-11 01:36:00,0.0,1.89637,0.00044,398.401,0.017,0.7508,0.0028,139.996,45.000,34425.57310,1.91072,402.083,36.375,45.066,45.000,0.00,0.10,-272.72,-272.78,-9,983,-10,27.5,15.2,-1.3,27.2,15.7,-1.1,5.73,1.85,1.5,31.1
2015-06-11 01:37:00,0.0,1.89638,0.00041,398.409,0.024,0.7471,0.0024,140.000,45.000,34426.32770,1.91065,402.075,36.375,45.066,45.000,0.00,0.10,-272.72,-272.78,-10,983,-10,27.4,15.1,-1.4,27.2,15.6,-1.2,5.73,1.86,1.5,31.1
2015-06-11 01:38:00,0.0,1.89664,0.00052,398.392,0.036,0.7505,0.0023,139.999,45.000,34425.52124,1.91093,402.074,36.375,45.066,45.000,0.00,0.10,-272.71,-272.77,-10,983,-10,27.5,15.2,-1.3,27.2,15.6,-1.1,5.73,1.89,1.5,31.1
2015-06-11 01:39:00,0.0,1.89666,0.00042,398.427,0.041,0.7430,0.0052,139.997,45.000,34425.39086,1.91086,402.070,36.375,45.066,45.000,0.00,0.10,-272.71,-272.78,-10,984,-10,27.5,15.0,-1.5,27.2,15.5,-1.2,5.73,1.91,1.5,31.0
2015-06-11 01:40:00,0.0,1.89708,0.00049,398.438,0.025,0.7399,0.0045,140.000,45.000,34425.41479,1.91120,402.067,36.375,45.066,45.000,0.00,0.10,-272.71,-272.78,-10,983,-10,27.5,15.0,-1.5,27.2,15.4,-1.4,5.73,1.93,1.5,31.1
2015-06-11 01:41:00,0.0,1.89675,0.00028,398.381,0.033,0.7472,0.0029,139.996,45.000,34425.07334,1.91107,402.047,36.372,45.066,45.000,0.00,0.10,-272.71,-272.77,-10,983,-10,27.5,15.1,-1.3,27.2,15.6,-1.2,5.73,1.91,1.5,31.0
2015-06-11 01:42:00,0.0,1.89676,0.00028,398.457,0.024,0.7412,0.0025,140.004,45.000,34427.43767,1.91089,402.091,36.375,45.066,45.000,0.00,0.10,-272.71,-272.77,-10,984,-10,27.5,15.0,-1.5,27.2,15.5,-1.3,5.73,1.89,1.5,31.0
2015-06-11 01:43:00,0.0,1.89717,0.00036,398.493,0.024,0.7298,0.0036,139.999,45.000,34424.79973,1.91112,402.072,36.373,45.066,45.000,0.00,0.10,-272.71,-272.78,-10,984,-10,27.5,14.8,-1.7,27.2,15.2,-1.5,5.73,1.84,1.5,31.1
2015-06-11 01:44:00,0.0,1.89743,0.00061,398.484,0.028,0.7350,0.0025,139.997,45.000,34425.16391,1.91143,402.088,36.373,45.066,45.000,0.00,0.10,-272.71,-272.78,-10,983,-10,27.5,14.9,-1.6,27.2,15.3,-1.4,5.73,1.84,1.5,31.0
2015-06-11 01:45:00,0.0,1.89743,0.00046,398.445,0.034,0.7441,0.0060,139.999,45.000,34423.57260,1.91168,402.095,36.373,45.067,45.000,0.00,0.10,-272.71,-272.77,-10,982,-10,27.5,15.1,-1.4,27.2,15.5,-1.3,5.73,1.86,1.5,31.0
2015-06-11 01:46:00,0.0,1.89750,0.00049,398.434,0.026,0.7471,0.0024,139.997,45.000,34423.26056,1.91173,402.100,36.375,45.066,45.000,0.00,0.10,-272.71,-272.78,-10,984,-10,27.5,15.1,-1.4,27.2,15.6,-1.2,5.73,1.89,1.5,31.0